Location: Newport
(44.6370°N, 124.0520°W)
Time: 06:25:32
(UTC-07:00)

Vanguard 1 - Pass Details

Date: 21 July 2018
Orbit: 650 x 3833 km, 34.2° (Epoch: 19 October)

Event Time Altitude Azimuth Distance (km) Brightness Sun altitude
Rises 23:14:30 0° 230° (SW) 4,347 13.3 -18.8°
Reaches altitude 10° 23:18:41 10° 216° (SW) 2,893 12.2 -19.2°
Enters shadow 23:20:42 16° 202° (SSW) 2,292 11.6 -19.4°
